Regional Weather Roundup
Issued by NWS Columbia, SC

Home | Current Version | Previous Version | Text Only | Print | Product List | Glossary On
Versions: 1 2 3 4 5 6 7 8 9 10 11 12 13 14 15 16 17 18 19 20 21 22 23 24 25 26 27 28 29 30 31 32 33 34 35 36 37 38 39 40 41 42 43 44 45 46 47 48 49 50
000
ASUS42 KCAE 161510
RWRCAE
REGIONAL WEATHER ROUNDUP
NATIONAL WEATHER SERVICE COLUMBIA SC
1000 AM EST MON JAN 16 2017

NOTE: "FAIR" INDICATES FEW OR NO CLOUDS BELOW 12,000 FEET WITH NO
SIGNIFICANT WEATHER AND/OR OBSTRUCTIONS TO VISIBILITY.

NOT ALL STATIONS ARE QUALITY CONTROLLED BY THE NATIONAL
WEATHER SERVICE. USE DATA WITH CAUTION...ESPECIALLY
DEWPOINT OBSERVATIONS.

SCZ001>056-GAZ040-063>065-077-161600-
...UPSTATE SOUTH CAROLINA...

CITY           SKY/WX    TMP DP  RH WIND       PRES   REMARKS
ANDERSON       CLOUDY    55  52  89 NE8       30.38R
LIBERTY        CLOUDY    54  51  89 E6        30.37R
SPARTANBURG    CLOUDY    52  46  82 CALM      30.40R
CLEMSON        CLOUDY    56  51  84 E8        30.39R
GREENVILLE     CLOUDY    55  51  86 NE6       30.40R FOG
GREENWOOD      CLOUDY    53  51  93 NE6       30.39R FOG
GREER          CLOUDY    53  50  89 NE7       30.38S FOG
ROCK HILL      CLOUDY    52  47  83 E5        30.41R
CHESTER        CLOUDY    52  50  93 NE3       30.42R FOG
LAURENS        CLOUDY    52  52 100 E7        30.39R FOG


...CENTRAL SOUTH CAROLINA...

CITY           SKY/WX    TMP DP  RH WIND       PRES   REMARKS
COLUMBIA APT   CLOUDY    56  54  93 E6        30.38R FOG
COLUMBIA OWENS CLOUDY    57  53  86 E3        30.40R FOG
MCENTIRE ANGB  FOG       55  55 100 NE8       30.39R VSB 3/4
ORANGEBURG     FOG       55  55 100 E6        30.38R VSB 1/2
SUMTER SHAW    CLOUDY    54  54 100 NE10      30.37S FOG
NEWBERRY       CLOUDY    54  54 100 NE6       30.42R FOG
AIKEN          FOG       50  50 100 NE7       30.40R VSB<1/4
BARNWELL         N/A     57  55  94 E6        30.37R FOG
MANNING        CLOUDY    54  54 100 NE5       30.38S FOG
CAMDEN         FOG       52  50  93 NE7       30.41R VSB 1/2
LANCASTER      CLOUDY    50  50 100 NE5       30.42R FOG
WINNSBORO      FOG       54  54 100 NE6       30.39R VSB 1


...EASTERN AND COASTAL SOUTH CAROLINA...

CITY           SKY/WX    TMP DP  RH WIND       PRES   REMARKS
MYRTLE BEACH   CLOUDY    54  48  82 NE12      30.42R FOG
N MYRTLE BCH   CLOUDY    53  49  86 NE12      30.40R
CONWAY         CLOUDY    50  50 100 N7        30.41R FOG
MARION         CLOUDY    46  46 100 E8        30.42R FOG
HARTSVILLE     CLOUDY    48  48 100 E6        30.41R VSB 1/2
FLORENCE       FOG       51  51 100 NE6       30.42R VSB 1/2
DARLINGTON     CLOUDY    48  48 100 E7        30.43R FOG
CHARLESTON APT FOG       58  57  97 E6        30.37R VSB 1/4
MOUNT PLEASANT LGT RAIN  57  57 100 NE3       30.37R
WALTERBORO     CLOUDY    59 N/A N/A NE5       30.38R
BEAUFORT       CLOUDY    58  56  93 NE5       30.36R


...EASTERN GEORGIA...

CITY           SKY/WX    TMP DP  RH WIND       PRES   REMARKS
AUGUSTA BUSH F PTSUNNY   59  53  80 N6        30.35R
AUGUSTA DANIEL PTSUNNY   60  53  77 E3        30.36R
THOMSON        CLOUDY    56  55  96 CALM      30.41R
WASHINGTON     FAIR      55  55 100 E3        30.36R
CLAXTON        FAIR     N/A N/A N/A CALM      30.35R
SYLVANIA       MOSUNNY  N/A N/A N/A SE3       30.35S
STATESBORO     MOSUNNY   64  60  86 SE3       30.35R
SAVANNAH       PTSUNNY   63  57  82 NE5       30.36R


...SOUTHERN NORTH CAROLINA...

CITY           SKY/WX    TMP DP  RH WIND       PRES   REMARKS
CHARLOTTE      CLOUDY    52  46  80 VRB7      30.42R
MONROE         CLOUDY    49  46  90 NE5       30.41R FOG
ROCKINGHAM     CLOUDY    46  46 100 NE5       30.43R FOG
RUTHERFORDTON  CLOUDY    51  51 100 SE3       30.41R FOG
ASHEVILLE      CLOUDY    52  49  89 S8        30.39R FOG

$$



USA.gov is the U.S. government's official web portal to all federal, state and local government web resources and services.